TimeMST,TemperatureF,Dew PointF,Humidity,Sea Level PressureIn,VisibilityMPH,Wind Direction,Wind SpeedMPH,Gust SpeedMPH,PrecipitationIn,Events,Conditions,WindDirDegrees,DateUTC
12:15 AM,42.8,19.4,39,29.94,10.0,West,11.5,-,N/A,,Clear,280,2014-01-26 07:15:00
12:35 AM,46.4,17.6,32,29.94,10.0,WNW,18.4,-,N/A,,Clear,300,2014-01-26 07:35:00
12:55 AM,42.8,17.6,36,29.94,10.0,WNW,15.0,-,N/A,,Clear,300,2014-01-26 07:55:00
1:15 AM,46.4,17.6,32,29.93,10.0,NW,24.2,28.8,N/A,,Clear,310,2014-01-26 08:15:00
1:35 AM,46.4,17.6,32,29.94,10.0,NW,16.1,-,N/A,,Clear,310,2014-01-26 08:35:00
1:55 AM,44.6,17.6,34,29.94,10.0,WNW,16.1,-,N/A,,Clear,300,2014-01-26 08:55:00
2:15 AM,44.6,17.6,34,29.94,10.0,WNW,16.1,-,N/A,,Clear,290,2014-01-26 09:15:00
2:35 AM,44.6,17.6,34,29.94,10.0,WNW,18.4,21.9,N/A,,Clear,290,2014-01-26 09:35:00
2:55 AM,41.0,17.6,39,29.94,10.0,West,13.8,-,N/A,,Clear,270,2014-01-26 09:55:00
3:15 AM,42.8,17.6,36,29.94,10.0,West,15.0,-,N/A,,Clear,270,2014-01-26 10:15:00
3:35 AM,41.0,17.6,39,29.94,10.0,West,12.7,-,N/A,,Clear,270,2014-01-26 10:35:00
3:55 AM,41.0,15.8,36,29.94,10.0,WNW,17.3,-,N/A,,Clear,290,2014-01-26 10:55:00
4:15 AM,41.0,15.8,36,29.93,10.0,WNW,17.3,-,N/A,,Clear,290,2014-01-26 11:15:00
4:35 AM,41.0,15.8,36,29.93,10.0,WNW,13.8,-,N/A,,Clear,290,2014-01-26 11:35:00
4:55 AM,41.0,15.8,36,29.92,10.0,West,16.1,-,N/A,,Clear,280,2014-01-26 11:55:00
5:15 AM,41.0,15.8,36,29.92,10.0,WNW,15.0,-,N/A,,Clear,290,2014-01-26 12:15:00
5:35 AM,41.0,15.8,36,29.91,10.0,West,13.8,-,N/A,,Clear,270,2014-01-26 12:35:00
5:55 AM,41.0,17.6,39,29.91,10.0,West,15.0,-,N/A,,Clear,280,2014-01-26 12:55:00
6:15 AM,41.0,17.6,39,29.91,10.0,West,13.8,-,N/A,,Clear,280,2014-01-26 13:15:00
6:25 AM,41.0,17.6,39,29.91,10.0,WNW,15.0,-,N/A,,Clear,290,2014-01-26 13:25:00
4:15 PM,60.8,14.0,16,29.78,10.0,WNW,21.9,28.8,N/A,,Clear,300,2014-01-26 23:15:00
4:35 PM,59.0,14.0,17,29.79,10.0,WNW,19.6,24.2,N/A,,Clear,290,2014-01-26 23:35:00
4:55 PM,59.0,12.2,16,29.80,10.0,NW,15.0,24.2,N/A,,Clear,310,2014-01-26 23:55:00
5:15 PM,55.4,12.2,18,29.81,10.0,NNW,10.4,-,N/A,,Clear,330,2014-01-27 00:15:00
5:35 PM,51.8,12.2,21,29.83,10.0,NNW,11.5,-,N/A,,Clear,330,2014-01-27 00:35:00
5:55 PM,53.6,12.2,19,29.84,10.0,NW,11.5,-,N/A,,Clear,320,2014-01-27 00:55:00
6:15 PM,48.2,17.6,30,29.87,10.0,ENE,17.3,23.0,N/A,,Clear,60,2014-01-27 01:15:00
6:35 PM,46.4,19.4,34,29.89,10.0,NE,16.1,23.0,N/A,,Scattered Clouds,50,2014-01-27 01:35:00
6:55 PM,44.6,21.2,39,29.92,10.0,East,11.5,23.0,N/A,,Mostly Cloudy,80,2014-01-27 01:55:00
7:15 PM,41.0,24.8,53,29.95,10.0,SE,20.7,24.2,N/A,,Scattered Clouds,140,2014-01-27 02:15:00
7:35 PM,39.2,26.6,61,29.97,10.0,SE,23.0,31.1,N/A,,Clear,140,2014-01-27 02:35:00
7:55 PM,37.4,26.6,65,30.00,10.0,SE,20.7,26.5,N/A,,Clear,130,2014-01-27 02:55:00
8:15 PM,37.4,26.6,65,30.02,10.0,SE,16.1,24.2,N/A,,Clear,130,2014-01-27 03:15:00
8:35 PM,35.6,26.6,70,30.03,10.0,ESE,18.4,23.0,N/A,,Clear,120,2014-01-27 03:35:00
8:55 PM,33.8,26.6,75,30.05,10.0,ESE,16.1,25.3,N/A,,Clear,120,2014-01-27 03:55:00
9:15 PM,32.0,26.6,80,30.06,10.0,East,17.3,23.0,N/A,,Clear,100,2014-01-27 04:15:00
9:35 PM,30.2,24.8,80,30.07,10.0,ESE,16.1,27.6,N/A,,Clear,110,2014-01-27 04:35:00
9:55 PM,30.2,23.0,75,30.08,10.0,ESE,13.8,21.9,N/A,,Mostly Cloudy,110,2014-01-27 04:55:00
10:15 PM,30.2,23.0,75,30.09,10.0,ESE,15.0,20.7,N/A,,Overcast,110,2014-01-27 05:15:00
10:35 PM,30.2,21.2,69,30.11,10.0,East,16.1,19.6,N/A,,Overcast,100,2014-01-27 05:35:00
10:55 PM,30.2,21.2,69,30.12,10.0,ESE,17.3,-,N/A,,Overcast,110,2014-01-27 05:55:00
11:15 PM,30.2,19.4,64,30.13,10.0,ESE,12.7,-,N/A,,Overcast,110,2014-01-27 06:15:00
11:35 PM,28.4,19.4,69,30.13,10.0,ESE,13.8,18.4,N/A,,Overcast,110,2014-01-27 06:35:00
11:55 PM,28.4,17.6,64,30.13,10.0,ESE,12.7,-,N/A,,Overcast,120,2014-01-27 06:55:00